Showing default

OTTER SDM, 66678

Orbit data source: Space-Track

OTTER SDM, 66678 is a payload satellite owned by DLR (US) in SSO that was launched on Fri, 28 Nov 2025 UTC via an FALCON 9 launch vehicle from the Air Force Western Test Range (AFWTR). Payload-class satellites include a variety of spacecraft equipped with specific instruments for various scientific and technological missions. These include communications satellites like Starlink; space stations such as the ISS; scientific satellites like the Hubble; Earth observation satellites from companies like Planet Labs, Umbra, and HawkEye 360; GPS; miniature CubeSats for education and research; and military/defense satellites.

Loading next visibility...
Identifier
66678, 2025-276N
Orbit
SSO
Country
Flag of USUS
Related business
Manufacturer
DLR
Mission
Operational Commercial Com/MetRO
Bus & Motor
CUBESAT 3U, Unknown motor
Mass
5 kg wet, 5 kg dry
Launch date (UTC)
2025-11-28 (9 months ago)
Launch vehicle
FALCON 9
Launch site
Air Force Western Test Range (AFWTR)
Object type
Payload
Rocket body
Debris
Shape & HBR
Box + 2 Pan, 0.5 m
Radar Cross Section
0.063 m², Medium (>0.1 m² and < 1m²)

Expand to show TLE details & history
Last TLE update: 15 hours ago

TLE from 15 hours ago
0 OTTER SDM
1 66678U 25276N   26238.15608855  .00006049  00000-0  27977-3 0  9998
2 66678  97.4170 310.4883 0007245 110.7090 249.4922 15.20494600 41048
Epoch: 2026-08-26T03:44Z
TLE epoch observation values (Epoch: 2026-08-26T03:44:46.050Z)
Latitude
-0.00009°
Longitude
-80.1167°
Altitude
509.189 km
Speed
7.608 km/s
True Right ascension
20h 41m 57s
True Declination
0° 00' 00"
Sunlit
Object was in full shadow at epoch
Visualization orbit readout
Latitude
Unknown
Longitude
Unknown
Altitude
Unknown
Speed
Unknown
Apparent Right ascension
Unknown
Apparent Declination
Unknown
Sunlit
N/A
Visualization observer readout
Local Sidereal Time
09:55:12
Azimuth
Unknown
Elevation
Unknown
Doppler factor
Unknown
Orbital elements
Apogee altitude
506.297 km
Perigee altitude
496.329 km
Semi-major axis
6,879.45 km
Eccentricity
0.00072
Inclination
97.417°
RAAN
310.4883°
Arg. of periapsis
110.709°
True anomaly
249.41446°
Mean anomaly
249.4922°
Eccentric anomaly
249.45333°
Mean motion
3.80376 °/min
Orbital period
94.64 mins
BSTAR
0.00027977
Loading maneuver chart data...
Computing Atmospheric mass density...
Loading historical data...
Loading historical data...
Loading historical data...
Loading historical data...
Loading historical data...
Loading historical data...
Loading historical data...

Documentation

Showing up to 5 results
|